This demonstration page uses our WeatherBlox Daily Observations layout. Learn more.

Left ArrowRight Arrow

41.55636, -103.73856

Hourly Observations for June 23, 2021

Temp ( °F °C ) Dew Point ( °F °C ) Humidity (%) Winds ( mph kmh ) Pressure ( in mb ) Visibility ( mi km ) Precip ( " mm )
12:58 am 00:58 Mostly Clear 71 21.8 42 5.4 34 34 SSW 20 31 29.69 1005 10 16 N/A
1:58 am 01:58 Clear 70 20.9 41 4.8 35 35 SSW 18 30 29.67 1005 10 16 N/A
2:58 am 02:58 Clear 70 21 40 4.3 34 34 SSW 18 30 29.67 1005 10 16 N/A
3:58 am 03:58 Clear 64 17.6 42 5.8 46 46 N 5 7 29.70 1006 10 16 N/A
4:58 am 04:58 Clear 67 19.6 44 6.8 44 44 ENE 5 7 29.70 1006 10 16 N/A
5:58 am 05:58 Partly Cloudy 60 15.4 45 7.3 59 59 SW 7 11 29.72 1007 10 16 N/A
6:58 am 06:58 Sunny 65 18.3 49 9.2 56 56 W 5 7 29.72 1006 10 16 N/A
7:58 am 07:58 Partly Cloudy 72 22.1 45 7.3 39 39 NW 8 13 29.73 1007 10 16 N/A
8:58 am 08:58 Sunny 76 24.7 46 8 35 35 NW 8 13 29.72 1007 10 16 N/A
9:58 am 09:58 Sunny 84 28.7 44 6.5 25 25 NW 9 15 29.70 1006 10 16 N/A
10:58 am 10:58 Sunny 88 31.2 39 4 18 18 N 8 13 29.72 1006 10 16 N/A
11:58 am 11:58 Sunny 90 32.4 37 2.8 15 15 NW 7 11 29.71 1006 10 16 N/A
12:58 pm 12:58 Sunny 91 32.7 39 4.1 16 16 NNW 6 9 29.72 1006 10 16 N/A
1:58 pm 13:58 Sunny 93 34 40 4.5 16 16 NNW 7 11 29.71 1006 10 16 N/A
2:58 pm 14:58 Sunny 95 35 37 2.8 13 13 N 6 9 29.69 1006 10 16 N/A
3:58 pm 15:58 Sunny 92 33.6 37 2.6 14 14 N N/A 29.70 1006 10 16 N/A
4:58 pm 16:58 Windy with Rain Showers Likely 86 29.8 35 1.8 16 16 SSE 20 31 29.72 1007 10 16 N/A
5:58 pm 17:58 Windy with Rain Showers Likely 87 30.7 34 1.1 15 15 NNW 32 52 29.72 1007 10 16 N/A
6:58 pm 18:58 Partly Cloudy 89 31.4 36 2.3 16 16 N N/A 29.72 1007 10 16 N/A
7:58 pm 19:58 Mostly Sunny 81 27.4 40 4.4 23 23 SSE 7 11 29.73 1007 10 16 N/A
8:58 pm 20:58 Mostly Cloudy 76 24.4 46 7.5 34 34 WNW 5 7 29.76 1008 10 16 N/A
9:58 pm 21:58 Mostly Cloudy 73 22.5 47 8.4 41 41 W 5 7 29.77 1008 10 16 N/A
10:58 pm 22:58 Mostly Cloudy 74 23.4 44 6.7 34 34 WSW 8 13 29.76 1008 10 16 N/A
11:58 pm 23:58 Mostly Cloudy 73 22.6 39 4 30 30 W 9 15 29.76 1008 10 16 N/A

Powered by AerisWeather